Location: Newark
(45.8667°N, 9.7333°E)
Time: 05:18:18
(UTC+00:00)

Transit 4A - Pass Details

Date: 02 February 2020
Orbit: 872 x 973 km, 66.8° (Epoch: 26 February)

Event Time Altitude Azimuth Distance (km) Brightness Sun altitude
Rises 03:45:19 0° 197° (SSW) 3,540 - -31.0°
Reaches altitude 10° 03:47:53 10° 194° (SSW) 2,587 - -30.6°
Exits shadow 03:52:12 44° 166° (SSE) 1,213 8.4 -29.8°
Maximum altitude 03:53:43 57° 117° (ESE) 1,041 8.3 -29.6°
Drops below altitude 10° 03:59:28 10° 40° (NE) 2,546 10.7 -28.6°
Sets 04:01:59 0° 36° (NE) 3,481 11.4 -28.1°
